| time (UTC) | temp C | wind direction | speed KPH | gust KPH | rain 1hr cm | rain 24hr cm | rain mn cm | humidity % | barometer mb |
| 20260901070012 | 15 | 150 | 0.0 | 1.6 | 0.00 | 0.00 | 0.00 | 44 | 1015.4 |
| 20260901064502 | 15 | 150 | 0.0 | 0.0 | 0.00 | 0.00 | 0.00 | 44 | 1015.5 |
| 20260901063109 | 15 | 150 | 0.0 | 1.6 | 0.00 | 0.00 | 0.00 | 42 | 1015.6 |
| 20260901061548 | 15 | 150 | 0.0 | 0.0 | 0.00 | 0.00 | 0.00 | 42 | 1015.8 |
| 20260901060037 | 15 | 150 | 0.0 | 0.0 | 0.00 | 0.00 | 0.00 | 40 | 1015.8 |
| 20260901054525 | 15 | 130 | 0.0 | 0.0 | 0.00 | 0.00 | 0.00 | 40 | 1016.0 |
| 20260901053010 | 16 | 130 | 0.0 | 0.0 | 0.00 | 0.00 | 0.00 | 39 | 1016.1 |
| 20260901051615 | 16 | 131 | 0.0 | 0.0 | 0.00 | 0.00 | 0.00 | 38 | 1016.4 |
| 20260901050046 | 16 | 130 | 0.0 | 0.0 | 0.00 | 0.00 | 0.00 | 38 | 1016.5 |
| 20260901044541 | 16 | 130 | 0.0 | 0.0 | 0.00 | 0.00 | 0.00 | 38 | 1016.6 |
| 20260901043030 | 16 | 131 | 0.0 | 0.0 | 0.00 | 0.00 | 0.00 | 37 | 1016.6 |
| 20260901041517 | 17 | 129 | 0.0 | 1.6 | 0.00 | 0.00 | 0.00 | 37 | 1016.7 |
| 20260901040004 | 17 | 128 | 0.0 | 1.6 | 0.00 | 0.00 | 0.00 | 36 | 1016.7 |
| 20260901034606 | 18 | 128 | 0.0 | 8.0 | 0.00 | 0.00 | 0.00 | 35 | 1016.7 |
| 20260901033108 | 18 | 149 | 0.0 | 4.8 | 0.00 | 0.00 | 0.00 | 34 | 1016.6 |
| 20260901031547 | 18 | 157 | 0.0 | 8.0 | 0.00 | 0.00 | 0.00 | 33 | 1016.6 |
| 20260901030027 | 19 | 155 | 0.0 | 0.0 | 0.00 | 0.00 | 0.00 | 33 | 1016.4 |
| 20260901024544 | 20 | 150 | 0.0 | 0.0 | 0.00 | 0.00 | 0.00 | 31 | 1016.4 |
| 20260901023049 | 21 | 146 | 0.0 | 6.4 | 0.00 | 0.00 | 0.00 | 28 | 1016.3 |
| 20260901021526 | 23 | 118 | 0.0 | 3.2 | 0.00 | 0.00 | 0.00 | 25 | 1016.3 |
| 20260901020009 | 25 | 84 | 0.0 | 6.4 | 0.00 | 0.00 | 0.00 | 24 | 1016.3 |
| 20260901014601 | 25 | 84 | 0.0 | 3.2 | 0.00 | 0.00 | 0.00 | 22 | 1016.4 |
| 20260901013041 | 26 | 66 | 0.0 | 9.7 | 0.00 | 0.00 | 0.00 | 21 | 1016.5 |
| 20260901011532 | 26 | 84 | 0.0 | 6.4 | 0.00 | 0.00 | 0.00 | 20 | 1016.5 |
| 20260901010026 | 26 | 98 | 1.6 | 3.2 | 0.00 | 0.00 | 0.00 | 20 | 1016.7 |
| 20260901004507 | 26 | 42 | 1.6 | 8.0 | 0.00 | 0.00 | 0.00 | 21 | 1016.7 |
| 20260901003057 | 26 | 11 | 0.0 | 4.8 | 0.00 | 0.00 | 0.00 | 21 | 1016.8 |
| 20260901001554 | 26 | 60 | 1.6 | 6.4 | 0.00 | 0.00 | 0.00 | 20 | 1017.1 |
| 20260901000045 | 26 | 94 | 4.8 | 16.1 | 0.00 | 0.00 | 0.00 | 21 | 1017.2 |
| 20260831234529 | 26 | 58 | 0.0 | 8.0 | 0.00 | 0.00 | 0.00 | 21 | 1017.3 |
| 20260831233011 | 26 | 104 | 1.6 | 8.0 | 0.00 | 0.00 | 0.00 | 21 | 1017.4 |
| 20260831231606 | 26 | 84 | 3.2 | 9.7 | 0.00 | 0.00 | 0.00 | 21 | 1017.7 |
| 20260831230045 | 26 | 20 | 1.6 | 3.2 | 0.00 | 0.00 | 0.00 | 20 | 1017.8 |
| 20260831224529 | 26 | 32 | 1.6 | 9.7 | 0.00 | 0.00 | 0.00 | 21 | 1018.1 |
| 20260831223009 | 26 | 97 | 1.6 | 6.4 | 0.00 | 0.00 | 0.00 | 21 | 1018.3 |
| 20260831221558 | 26 | 44 | 0.0 | 9.7 | 0.00 | 0.00 | 0.00 | 21 | 1018.6 |
| 20260831221503 | 26 | 360 | 0.0 | 9.7 | 0.00 | 0.00 | 0.00 | 21 | 1018.6 |
| 20260831220045 | 26 | 15 | 0.0 | 6.4 | 0.00 | 0.00 | 0.00 | 21 | 1018.9 |
| 20260831214535 | 26 | 90 | 0.0 | 12.9 | 0.00 | 0.00 | 0.00 | 22 | 1019.2 |
| 20260831213016 | 26 | 26 | 0.0 | 12.9 | 0.00 | 0.00 | 0.00 | 22 | 1019.4 |
| 20260831211511 | 26 | 17 | 1.6 | 6.4 | 0.00 | 0.00 | 0.00 | 22 | 1019.6 |
| 20260831210058 | 25 | 13 | 0.0 | 6.4 | 0.00 | 0.00 | 0.00 | 23 | 1019.7 |
| 20260831204546 | 25 | 313 | 0.0 | 8.0 | 0.00 | 0.00 | 0.00 | 23 | 1019.9 |
| 20260831203025 | 25 | 34 | 0.0 | 9.7 | 0.00 | 0.00 | 0.00 | 23 | 1020.1 |
| 20260831201514 | 25 | 46 | 0.0 | 14.5 | 0.00 | 0.00 | 0.00 | 23 | 1020.4 |
| 20260831200003 | 25 | 33 | 1.6 | 6.4 | 0.00 | 0.00 | 0.00 | 22 | 1020.7 |
| 20260831194610 | 25 | 30 | 0.0 | 12.9 | 0.00 | 0.00 | 0.00 | 23 | 1020.8 |
| 20260831193042 | 25 | 83 | 0.0 | 4.8 | 0.00 | 0.00 | 0.00 | 25 | 1020.8 |
| 20260831191522 | 24 | 52 | 0.0 | 3.2 | 0.00 | 0.00 | 0.00 | 27 | 1021.1 |
| 20260831190015 | 23 | 22 | 0.0 | 4.8 | 0.00 | 0.00 | 0.00 | 27 | 1021.4 |
| 20260831184559 | 22 | 42 | 0.0 | 3.2 | 0.00 | 0.00 | 0.00 | 27 | 1021.7 |
| 20260831183028 | 22 | 21 | 0.0 | 6.4 | 0.00 | 0.00 | 0.00 | 28 | 1021.8 |
| 20260831181514 | 21 | 17 | 0.0 | 4.8 | 0.00 | 0.00 | 0.00 | 29 | 1022.1 |
| 20260831180056 | 21 | 299 | 0.0 | 3.2 | 0.00 | 0.00 | 0.00 | 31 | 1022.1 |
| 20260831174537 | 21 | 15 | 0.0 | 0.0 | 0.00 | 0.00 | 0.00 | 31 | 1022.4 |
| 20260831173025 | 19 | 24 | 0.0 | 4.8 | 0.00 | 0.00 | 0.00 | 35 | 1022.6 |
| 20260831171504 | 18 | 5 | 0.0 | 4.8 | 0.00 | 0.00 | 0.00 | 37 | 1022.7 |
| 20260831170054 | 17 | 36 | 0.0 | 0.0 | 0.00 | 0.00 | 0.00 | 41 | 1022.9 |
| 20260831164537 | 16 | 15 | 0.0 | 0.0 | 0.00 | 0.00 | 0.00 | 41 | 1023.0 |
| 20260831163014 | 16 | 320 | 0.0 | 0.0 | 0.00 | 0.00 | 0.00 | 43 | 1023.0 |
| 20260831161551 | 15 | 319 | 0.0 | 1.6 | 0.00 | 0.00 | 0.00 | 44 | 1023.1 |
| 20260831160032 | 14 | 319 | 0.0 | 0.0 | 0.00 | 0.00 | 0.00 | 45 | 1023.2 |
| 20260831154523 | 14 | 318 | 0.0 | 0.0 | 0.00 | 0.00 | 0.00 | 47 | 1023.3 |
| 20260831153107 | 13 | 319 | 0.0 | 0.0 | 0.00 | 0.00 | 0.00 | 48 | 1023.2 |
| 20260831151545 | 12 | 279 | 0.0 | 0.0 | 0.00 | 0.00 | 0.00 | 51 | 1023.2 |
| 20260831150010 | 12 | 279 | 0.0 | 0.0 | 0.00 | 0.00 | 0.00 | 53 | 1023.1 |
| 20260831144545 | 11 | 274 | 0.0 | 0.0 | 0.00 | 0.00 | 0.00 | 57 | 1023.2 |
| 20260831143024 | 9 | 267 | 0.0 | 0.0 | 0.00 | 0.00 | 0.00 | 65 | 1023.1 |
| 20260831141510 | 8 | 222 | 0.0 | 0.0 | 0.00 | 0.00 | 0.00 | 69 | 1022.9 |
| 20260831140100 | 7 | 223 | 0.0 | 0.0 | 0.00 | 0.00 | 0.00 | 67 | 1022.9 |
| 20260831140001 | 7 | 223 | 0.0 | 0.0 | 0.00 | 0.00 | 0.00 | 67 | 1022.9 |
| 20260831134604 | 7 | 223 | 0.0 | 0.0 | 0.00 | 0.00 | 0.00 | 67 | 1022.9 |
| 20260831133104 | 7 | 223 | 0.0 | 0.0 | 0.00 | 0.00 | 0.00 | 66 | 1022.9 |
| 20260831131556 | 7 | 223 | 0.0 | 0.0 | 0.00 | 0.00 | 0.00 | 66 | 1022.9 |
| 20260831130044 | 7 | 223 | 0.0 | 0.0 | 0.00 | 0.00 | 0.00 | 65 | 1022.7 |
| 20260831124520 | 7 | 223 | 0.0 | 0.0 | 0.00 | 0.00 | 0.00 | 65 | 1022.7 |
| 20260831123014 | 7 | 222 | 0.0 | 0.0 | 0.00 | 0.00 | 0.00 | 65 | 1022.8 |
| 20260831121503 | 7 | 223 | 0.0 | 0.0 | 0.00 | 0.00 | 0.00 | 65 | 1022.8 |
| 20260831120045 | 7 | 223 | 0.0 | 0.0 | 0.00 | 0.00 | 0.00 | 64 | 1022.9 |
| 20260831114521 | 7 | 222 | 0.0 | 0.0 | 0.00 | 0.00 | 0.00 | 63 | 1022.9 |
| 20260831113012 | 7 | 223 | 0.0 | 0.0 | 0.00 | 0.00 | 0.00 | 63 | 1022.9 |
| 20260831111509 | 7 | 232 | 0.0 | 0.0 | 0.00 | 0.00 | 0.00 | 63 | 1022.9 |
| 20260831110047 | 7 | 232 | 0.0 | 0.0 | 0.00 | 0.00 | 0.00 | 63 | 1023.0 |
| 20260831104533 | 7 | 232 | 0.0 | 0.0 | 0.00 | 0.00 | 0.00 | 62 | 1023.0 |
| 20260831103022 | 7 | 232 | 0.0 | 0.0 | 0.00 | 0.00 | 0.00 | 62 | 1023.0 |
| 20260831101512 | 8 | 232 | 0.0 | 0.0 | 0.00 | 0.00 | 0.00 | 61 | 1023.1 |
| 20260831100059 | 8 | 238 | 0.0 | 0.0 | 0.00 | 0.00 | 0.00 | 61 | 1023.1 |
| 20260831094559 | 8 | 238 | 0.0 | 0.0 | 0.00 | 0.00 | 0.00 | 60 | 1023.1 |
| 20260831093048 | 8 | 237 | 0.0 | 0.0 | 0.00 | 0.00 | 0.00 | 60 | 1023.2 |
| 20260831091525 | 8 | 238 | 0.0 | 0.0 | 0.00 | 0.00 | 0.00 | 60 | 1023.2 |
| 20260831090003 | 8 | 238 | 0.0 | 0.0 | 0.00 | 0.00 | 0.00 | 59 | 1023.4 |
| 20260831084650 | 8 | 238 | 0.0 | 0.0 | 0.00 | 0.00 | 0.00 | 58 | 1023.4 |
| 20260831084503 | 8 | 238 | 0.0 | 0.0 | 0.00 | 0.00 | 0.00 | 58 | 1023.4 |
| 20260831083050 | 8 | 237 | 0.0 | 0.0 | 0.00 | 0.00 | 0.00 | 59 | 1023.4 |
| 20260831081525 | 8 | 238 | 0.0 | 0.0 | 0.00 | 0.00 | 0.00 | 59 | 1023.3 |
| 20260831080027 | 8 | 237 | 0.0 | 0.0 | 0.00 | 0.00 | 0.00 | 57 | 1023.3 |
| 20260831074557 | 9 | 237 | 0.0 | 0.0 | 0.00 | 0.00 | 0.00 | 56 | 1023.4 |
| 20260831073042 | 10 | 238 | 0.0 | 0.0 | 0.00 | 0.00 | 0.00 | 55 | 1023.3 |
| 20260831071517 | 10 | 250 | 0.0 | 0.0 | 0.00 | 0.00 | 0.00 | 54 | 1023.2 |